Location: Newark
(25.6108°S, 54.5803°W)
Time: 12:00:40
(UTC+00:00)

Courier 1B Rocket - Pass Details

Date: 04 November 2020
Orbit: 920 x 1202 km, 28.2° (Epoch: 01 December)

Event Time Altitude Azimuth Distance (km) Brightness Sun altitude
Rises 11:51:29 0° 257° (WSW) 3,925 7.7 40.1°
Reaches altitude 10° 11:54:21 10° 259° (W) 2,923 7.1 40.7°
Maximum altitude 12:01:24 67° 340° (NNW) 1,101 5.9 42.3°
Drops below altitude 10° 12:07:57 10° 61° (ENE) 2,712 8.2 43.8°
Sets 12:10:31 0° 64° (ENE) 3,624 8.7 44.4°
